GLOBALSTAR M074

Last updated on Sat Sep 05 2026 00:03:15 GMT+0000 (Coordinated Universal Time)

1 37189U 10054B 26247.36938588 -.00000089 00000+0 80666-4 0 9996 2 37189 51.9996 226.8823 0000218 62.0163 101.3596 12.62263051733151
UTC large
Height (km)
Speed (km/s)
/
Latitude / Longitude
Inclination (degrees)
Orbital Period (minutes)
Azimuth
Elevation
Range (km)
Doppler Factor

Next 0 passes for location: London (51.5072 / 0.1276)

No passes found over London.
GLOBALSTAR M074